Weather reports worldwide

Advertisment
Tholey, Germany (10706): temperature & dewpoint: 06.11.2019 17:00:00 - 12.11.2019 17:00:00 (CET)Tholey, Germany (10706): temperature 5cm & temperature -5cm: 06.11.2019 17:00:00 - 12.11.2019 17:00:00 (CET)Tholey, Germany (10706): temperature -20cm & temperature -100cm: 06.11.2019 17:00:00 - 12.11.2019 17:00:00 (CET)Tholey, Germany (10706): wind speed & gusts: 06.11.2019 17:00:00 - 12.11.2019 17:00:00 (CET)Tholey, Germany (10706): wind direction: 06.11.2019 17:00:00 - 12.11.2019 17:00:00 (CET)Tholey, Germany (10706): reduced air pressure: 06.11.2019 17:00:00 - 12.11.2019 17:00:00 (CET)Tholey, Germany (10706): visibility: 06.11.2019 17:00:00 - 12.11.2019 17:00:00 (CET)Tholey, Germany (10706): sunshine duration: 06.11.2019 17:00:00 - 12.11.2019 17:00:00 (CET)Tholey, Germany (10706): precipitation: 06.11.2019 17:00:00 - 12.11.2019 17:00:00 (CET)
Date & Time tt [°C] td [°C] tt 5cm [°C] tt -5cm [°C] tt -20cm [°C] tt -100cm [°C] ff [km/h] ff [kn] fx [km/h] fx [kn] dd ppp [hPa] vv [km] sd [min] rr [mm]
12.11.2019 17:00:00 4,1 0,8 2,5 4,4 5,7 10,6 18 10 41 22 WSW 1004,4 54 25 0,0
12.11.2019 16:00:00 5,0 1,5 4,5 4,9 5,7 10,6 26 14 44 24 WSW 1004,1 49 3 0,0
12.11.2019 15:00:00 5,2 1,8 4,9 5,1 5,6 10,6 29 16 48 26 WSW 1003,9 55 0 0,0
12.11.2019 14:00:00 5,1 2,2 5,2 5,1 5,5 10,6 27 15 41 22 WSW 1004,0 69 0 0,0
12.11.2019 13:00:00 4,5 2,5 3,9 4,9 5,5 10,6 26 14 58 31 WSW 1004,6 28 0 0,0
12.11.2019 12:00:00 4,7 2,5 4,5 4,8 5,4 10,6 26 14 60 33 SW 1005,2 40 0 0,0
12.11.2019 11:00:00 4,2 2,0 3,9 4,2 5,4 10,7 29 16 51 27 SW 1005,6 38 0 0,0
12.11.2019 10:00:00 3,7 2,2 3,2 4,0 5,5 10,7 26 14 39 21 SW 1005,9 24 0 0,0
12.11.2019 09:00:00 3,4 2,2 2,9 3,8 5,5 10,7 26 14 39 21 SW 1006,5 10 0 0,0
12.11.2019 08:00:00 3,2 2,1 3,0 3,8 5,5 10,7 21 12 39 21 SW 1006,6 30 0 0,0
12.11.2019 07:00:00 3,2 2,3 3,0 3,8 5,6 10,7 20 11 33 18 SW 1006,8 28 0 0,0
12.11.2019 06:00:00 3,3 2,1 3,0 3,8 5,6 10,7 20 11 45 25 SW 1007,1 37 0 0,0
12.11.2019 05:00:00 3,3 2,3 3,1 3,9 5,6 10,7 28 15 44 24 WSW 1007,4 35 0 0,0
12.11.2019 04:00:00 3,3 2,5 3,0 4,0 5,7 10,7 31 17 41 22 WSW 1007,5 25 0 0,0
12.11.2019 03:00:00 3,3 2,7 3,1 4,1 5,7 10,7 21 11 37 20 WSW 1007,7 16 0 0,0
12.11.2019 02:00:00 3,2 2,9 3,0 4,2 5,7 10,8 19 11 32 17 WSW 1007,6 14 0 0,0
12.11.2019 01:00:00 3,5 3,1 3,2 4,3 5,7 10,8 20 11 29 15 WSW 1007,7 24 0 0,0
12.11.2019 00:00:00 3,9 3,8 3,7 4,4 5,7 10,8 15 8 24 13 W 1007,4 3,8 0 0,1
11.11.2019 23:00:00 3,8 3,7 3,7 4,4 5,8 10,8 16 9 26 14 WSW 1007,0 4,7 0 0,0
11.11.2019 22:00:00 3,6 3,6 3,5 4,4 5,8 10,8 15 8 26 14 WSW 1006,4 4,3 0 0,1
11.11.2019 21:00:00 3,5 3,3 3,3 4,3 5,8 10,8 17 9 32 17 WSW 1006,4 8 0 0,5
11.11.2019 20:00:00 3,6 3,3 3,3 4,4 5,8 10,9 21 11 37 20 SW 1006,1 10 0 1,1
11.11.2019 19:00:00 3,7 3,0 3,3 4,5 5,9 10,9 17 9 29 15 SW 1006,1 9 0 1,0
11.11.2019 18:00:00 3,9 2,5 3,7 4,7 5,8 10,9 14 7 29 16 S 1005,7 24 0 0,0
11.11.2019 17:00:00 3,8 2,3 3,6 5,0 5,8 10,9 14 8 26 14 S 1005,8 30 0 0,0
11.11.2019 16:00:00 3,9 2,3 3,9 5,6 5,7 10,9 12 7 22 12 S 1006,2 34 0 0,0
11.11.2019 15:00:00 4,3 2,3 4,5 6,2 5,5 10,9 11 6 22 12 S 1007,0 39 0 0,0
11.11.2019 14:00:00 4,1 2,2 4,6 6,4 5,3 10,9 14 7 23 12 SSW 1008,0 27 8 0,0
11.11.2019 13:00:00 3,6 2,5 4,4 5,3 5,2 10,9 12 7 25 14 S 1009,0 26 0 0,0
11.11.2019 12:00:00 3,1 2,9 3,7 4,5 5,1 11,0 13 7 22 12 S 1010,1 9 0 0,0
11.11.2019 11:00:00 2,1 2,1 2,5 3,9 5,1 11,0 11 6 16 9 S 1011,4 0,2 0 0,0
11.11.2019 10:00:00 1,6 1,6 2,0 3,6 5,1 11,0 6 4 16 9 SSE 1012,3 0,4 0 0,0
11.11.2019 09:00:00 0,7 0,7 1,3 2,8 5,2 11,0 9 5 18 10 E 1013,1 0,1 0 0,0
11.11.2019 08:00:00 0,2 0,2 0,6 2,7 5,2 11,0 10 5 15 8 E 1013,7 0,1 0 0,0
11.11.2019 07:00:00 0,2 0,2 0,5 2,8 5,3 11,0 10 5 16 8 E 1014,2 0,1 0 0,0
11.11.2019 06:00:00 0,0 0,0 0,5 2,9 5,3 11,0 3 2 10 5 ESE 1015,3 0,2 0 0,0
11.11.2019 05:00:00 0,0 0,0 0,4 3,0 5,4 11,0 9 5 14 8 SE 1015,5 0,1 0 0,0
11.11.2019 04:00:00 0,9 0,9 1,2 3,1 5,4 11,1 9 5 14 8 E 1015,7 0,1 0 0,0
11.11.2019 03:00:00 1,0 1,0 1,2 3,2 5,5 11,1 8 5 15 8 ENE 1016,1 0,1 0 0,0
11.11.2019 02:00:00 1,0 1,0 1,4 3,3 5,5 11,1 10 5 13 7 ESE 1015,9 0,1 0 0,0
11.11.2019 01:00:00 1,2 1,2 1,4 3,4 5,6 11,1 10 5 16 8 E 1016,5 0,1 0 0,0
11.11.2019 00:00:00 1,0 1,0 1,2 3,4 5,6 11,1 8 4 14 7 ENE 1016,8 0,1 0 0,0
10.11.2019 23:00:00 1,1 1,1 1,4 3,7 5,7 11,1 9 5 13 7 E 1017,0 0,1 0 0,0
10.11.2019 22:00:00 1,6 1,6 1,8 3,8 5,7 11,1 8 4 13 7 E 1017,1 0,1 0 0,0
10.11.2019 21:00:00 1,8 1,8 2,0 4,0 5,8 11,1 8 4 15 8 E 1016,8 0,1 0 0,0
10.11.2019 20:00:00 2,3 2,3 2,5 4,1 5,9 11,2 7 4 15 8 E 1016,8 0,1 0 0,0
10.11.2019 19:00:00 2,3 2,3 2,4 4,2 5,9 11,2 9 5 16 8 E 1016,6 0,2 0 0,0
10.11.2019 18:00:00 2,5 2,3 2,1 4,5 5,9 11,2 8 4 13 7 ENE 1016,3 5 0 0,0
10.11.2019 17:00:00 2,8 2,0 0,9 5,7 5,8 11,2 7 4 11 6 E 1015,5 14 37 0,0
10.11.2019 16:00:00 4,0 2,4 4,6 7,5 5,5 11,2 9 5 13 7 ESE 1014,6 27 60 0,0
10.11.2019 15:00:00 4,3 2,1 6,8 8,1 5,2 11,2 8 5 12 7 SE 1013,7 28 59 0,0
10.11.2019 14:00:00 3,7 2,1 6,0 6,5 4,9 11,2 9 5 16 9 ESE 1013,6 26 11 0,0
10.11.2019 13:00:00 3,1 2,0 4,5 6,7 4,7 11,2 13 7 18 10 E 1013,4 17 19 0,0
10.11.2019 12:00:00 2,8 2,0 4,0 4,9 4,6 11,2 5 3 21 11 ENE 1013,5 19 9 0,0
10.11.2019 11:00:00 2,3 1,7 4,3 3,8 4,5 11,2 13 7 22 12 ENE 1012,9 16 50 0,0
10.11.2019 10:00:00 1,9 1,2 3,1 1,8 4,6 11,3 13 7 19 11 E 1012,2 9 60 0,0
10.11.2019 09:00:00 0,2 -0,2 0,0 1,0 4,7 11,3 13 7 19 11 ENE 1011,9 7 56 0,0
10.11.2019 08:00:00 -0,4 -0,7 -1,3 1,0 4,8 11,3 12 6 19 10 ENE 1011,3 14 2 0,0
10.11.2019 07:00:00 0,0 -0,4 -1,1 1,0 4,9 11,3 15 8 22 12 ENE 1010,6 16 0 0,0
10.11.2019 06:00:00 0,6 0,0 -0,9 1,0 5,0 11,3 14 7 18 10 NE 1010,0 25 0 0,0
10.11.2019 05:00:00 0,4 0,0 -1,0 1,1 5,1 11,3 13 7 18 10 NE 1009,5 20 0 0,0
10.11.2019 04:00:00 -0,1 -0,2 -1,3 1,1 5,3 11,3 11 6 16 9 ENE 1009,5 1,7 0 0,0
10.11.2019 03:00:00 -0,5 -0,5 -1,3 1,2 5,4 11,3 11 6 16 9 ENE 1009,8 0,2 0 0,0
10.11.2019 02:00:00 0,1 0,1 -0,3 1,4 5,6 11,3 10 5 16 9 ENE 1009,7 0,2 0 0,0
10.11.2019 01:00:00 0,1 0,1 -0,5 1,3 5,8 11,3 11 6 16 9 ENE 1009,8 0,4 0 0,0
10.11.2019 00:00:00 1,4 1,4 -0,3 1,5 6,0 11,4 11 6 14 7 NE 1009,5 4,0 0 0,0
09.11.2019 23:00:00 1,3 1,3 -0,3 1,9 6,2 11,4 8 5 11 6 ENE 1009,5 0,7 0 0,0
09.11.2019 22:00:00 1,8 1,7 -0,8 2,1 6,3 11,4 7 4 9 5 NE 1009,8 3,6 0 0,0
09.11.2019 21:00:00 2,0 1,9 -0,4 2,6 6,5 11,4 5 3 7 4 ENE 1010,0 10 0 0,0
09.11.2019 20:00:00 2,7 2,2 -0,7 3,5 6,6 11,4 0 0 5 3 N 1010,0 28 0 0,0
09.11.2019 19:00:00 3,0 2,5 0,5 4,0 6,7 11,4 3 2 5 3 WNW 1010,2 23 0 0,0
09.11.2019 18:00:00 3,4 2,7 1,0 5,1 6,7 11,4 4 2 24 13 SSW 1010,2 23 0 1,1
09.11.2019 17:00:00 4,2 3,2 3,8 5,7 6,7 11,4 9 5 14 7 WSW 1010,2 7 0 0,2
09.11.2019 16:00:00 4,8 2,6 4,4 6,0 6,6 11,4 8 4 16 9 SW 1010,1 42 1 0,0
09.11.2019 15:00:00 4,5 2,4 4,3 6,2 6,5 11,4 10 6 18 10 WSW 1010,5 38 0 0,0
09.11.2019 14:00:00 4,1 2,6 4,4 6,1 6,4 11,4 9 5 22 12 WSW 1011,0 24 0 0,0
09.11.2019 13:00:00 3,5 2,7 3,8 5,7 6,3 11,4 16 9 22 12 SW 1011,4 9 0 0,0
09.11.2019 12:00:00 3,2 3,2 3,7 5,1 6,3 11,5 10 6 19 11 WSW 1011,8 1,7 0 0,0
09.11.2019 11:00:00 2,9 2,9 3,4 4,8 6,2 11,5 12 7 23 13 W 1012,1 0,5 0 0,0
09.11.2019 10:00:00 2,4 2,4 2,8 4,4 6,2 11,5 15 8 25 14 WSW 1012,1 0,1 0 0,0
09.11.2019 09:00:00 2,4 2,4 2,6 4,1 6,3 11,5 14 8 21 11 W 1012,1 0,7 0 0,0
09.11.2019 08:00:00 2,6 2,6 2,7 3,9 6,3 11,5 10 6 16 9 W 1011,8 0,1 0 0,0
09.11.2019 07:00:00 2,4 2,4 2,4 3,8 6,4 11,5 12 6 16 8 W 1011,1 0,1 0 0,0
09.11.2019 06:00:00 2,2 2,2 2,2 3,7 6,4 11,5 7 4 12 6 W 1011,2 0,1 0 0,0
09.11.2019 05:00:00 2,0 2,0 2,0 3,6 6,5 11,5 9 5 16 9 W 1010,9 0,1 0 0,0
09.11.2019 04:00:00 1,5 1,5 1,5 3,5 6,6 11,5 5 3 10 5 SW 1010,8 0,1 0 0,0
09.11.2019 03:00:00 1,9 1,9 1,6 3,5 6,8 11,5 7 4 9 5 WSW 1010,3 0,4 0 0,0
09.11.2019 02:00:00 1,6 1,6 1,1 3,2 6,9 11,5 7 4 10 5 W 1010,2 0,1 0 0,0
09.11.2019 01:00:00 2,5 2,5 0,6 3,4 7,1 11,5 6 3 8 5 WSW 1009,9 0,2 0 0,0
09.11.2019 00:00:00 3,0 3,0 0,7 3,7 7,3 11,6 5 3 6 3 W 1009,6 1,7 0 0,0
08.11.2019 23:00:00 3,0 3,0 0,4 4,2 7,4 11,6 3 2 9 5 SW 1009,2 7 0 0,0
08.11.2019 22:00:00 3,3 3,3 2,1 4,8 7,6 11,6 7 4 9 5 W 1009,2 0,1 0 0,0
08.11.2019 21:00:00 4,7 4,4 2,0 5,6 7,6 11,6 6 3 10 5 W 1008,5 23 0 0,0
08.11.2019 20:00:00 5,5 4,7 3,7 5,8 7,7 11,6 5 3 6 3 WSW 1008,0 27 0 0,0
08.11.2019 19:00:00 5,5 4,7 4,0 6,5 7,7 11,6 2 1 5 3 SW 1007,7 24 0 0,0
08.11.2019 18:00:00 6,2 4,9 5,4 7,0 7,7 11,6 4 2 6 4 WNW 1007,3 31 0 0,0
08.11.2019 17:00:00 6,4 4,7 5,4 7,5 7,6 11,6 3 2 6 3 ENE 1006,6 32 0 0,0
08.11.2019 16:00:00 6,7 4,3 6,3 8,0 7,5 11,6 4 2 8 4 ENE 1006,2 55 0 0,0
08.11.2019 15:00:00 6,8 4,3 6,9 8,5 7,3 11,6 4 2 11 6 E 1005,7 47 0 0,0
08.11.2019 14:00:00 6,7 4,8 7,2 8,5 7,0 11,6 8 4 12 7 ENE 1005,4 42 0 0,0
08.11.2019 13:00:00 6,6 4,5 7,4 8,5 6,8 11,6 5 3 8 4 ESE 1005,8 57 12 0,0
08.11.2019 12:00:00 6,3 3,4 7,5 7,9 6,6 11,6 5 3 8 5 NE 1005,7 56 24 0,0
08.11.2019 11:00:00 5,2 3,7 5,3 6,6 6,5 11,6 8 4 14 7 E 1006,2 39 29 0,0
08.11.2019 10:00:00 4,2 3,1 3,9 5,0 6,5 11,6 8 4 13 7 E 1006,3 37 20 0,0
08.11.2019 09:00:00 3,9 2,5 3,4 3,9 6,6 11,6 10 5 14 8 NE 1006,1 44 0 0,0
08.11.2019 08:00:00 3,6 2,4 2,1 3,2 6,7 11,6 11 6 17 9 NE 1005,8 39 0 0,0
08.11.2019 07:00:00 3,3 2,4 1,9 3,3 6,8 11,6 12 6 16 9 NE 1005,6 35 0 0,0
08.11.2019 06:00:00 3,2 2,6 2,1 3,5 6,9 11,6 10 5 16 9 ENE 1005,5 27 0 0,0
08.11.2019 05:00:00 3,7 2,8 2,3 3,6 7,0 11,6 10 5 13 7 ENE 1005,5 34 0 0,0
08.11.2019 04:00:00 3,9 3,1 2,4 3,7 7,2 11,6 11 6 13 7 NE 1005,2 37 0 0,0
08.11.2019 03:00:00 3,5 3,0 2,4 3,9 7,3 11,6 10 5 13 7 ENE 1005,7 21 0 0,0
08.11.2019 02:00:00 3,6 3,4 1,7 3,9 7,4 11,7 6 3 11 6 NNE 1006,0 12 0 0,0
08.11.2019 01:00:00 3,7 3,7 3,2 3,9 7,6 11,7 9 5 13 7 NE 1006,1 8 0 0,0
08.11.2019 00:00:00 2,7 2,1 0,7 3,6 7,8 11,7 6 3 9 5 E 1006,0 11 0 0,0
07.11.2019 23:00:00 3,5 2,8 1,6 4,0 8,0 11,7 7 4 10 5 ENE 1005,8 29 0 0,0
07.11.2019 22:00:00 3,8 3,3 1,2 4,4 8,2 11,7 8 5 15 8 WSW 1005,0 22 0 0,0
07.11.2019 21:00:00 4,9 3,5 3,2 4,8 8,4 11,7 12 6 15 8 W 1004,9 43 0 0,0
07.11.2019 20:00:00 5,5 3,5 2,3 5,4 8,5 11,7 6 4 18 10 WSW 1004,4 46 0 0,0
07.11.2019 19:00:00 5,9 3,8 4,1 6,2 8,6 11,7 11 6 28 15 SW 1004,1 53 0 0,0
07.11.2019 18:00:00 6,6 4,4 5,4 6,9 8,6 11,7 18 10 33 18 SW 1003,0 53 0 0,0
07.11.2019 17:00:00 7,2 5,6 6,8 7,6 8,6 11,7 16 8 36 19 WSW 1002,4 54 4 0,0
07.11.2019 16:00:00 7,6 5,6 7,2 8,2 8,6 11,7 26 14 44 24 WSW 1001,0 50 10 0,4
07.11.2019 15:00:00 7,6 6,2 7,0 8,2 8,6 11,7 27 15 50 27 SW 1000,3 15 1 0,1
07.11.2019 14:00:00 7,7 7,0 7,7 7,9 8,6 11,7 24 13 42 23 SW 999,5 71 0 0,1
07.11.2019 13:00:00 6,6 6,2 6,4 7,4 8,6 11,7 21 12 35 19 SSW 999,2 18 0 0,9
07.11.2019 12:00:00 6,3 5,8 6,1 7,3 8,6 11,7 16 9 31 17 S 999,1 3,9 0 1,1
07.11.2019 11:00:00 6,5 5,1 5,8 7,3 8,6 11,7 19 10 38 21 S 999,4 11 0 1,8
07.11.2019 10:00:00 6,6 5,5 6,2 7,4 8,7 11,7 12 7 26 14 SE 999,4 17 0 0,3
07.11.2019 09:00:00 6,7 5,1 6,3 7,2 8,7 11,7 13 7 19 11 SSE 999,8 43 0 0,0
07.11.2019 08:00:00 6,6 5,2 5,7 7,2 8,8 11,7 12 7 21 12 SSE 1000,1 42 0 0,0
07.11.2019 07:00:00 6,9 5,9 6,4 7,4 8,8 11,7 12 6 23 12 S 1000,4 27 0 0,0
07.11.2019 06:00:00 7,0 6,2 6,6 7,4 8,8 11,7 13 7 19 11 S 1001,0 20 0 0,0
07.11.2019 05:00:00 7,0 6,3 6,5 7,4 8,9 11,7 9 5 18 10 S 1001,6 18 0 0,0
07.11.2019 04:00:00 6,9 6,4 6,5 7,5 8,9 11,7 11 6 22 12 SSW 1002,1 16 0 0,0
07.11.2019 03:00:00 7,0 6,5 6,7 7,7 9,0 11,7 16 9 24 13 SSW 1002,6 15 0 0,0
07.11.2019 02:00:00 7,0 6,7 6,7 7,7 9,0 11,7 12 6 21 11 SSW 1002,9 10 0 0,0
07.11.2019 01:00:00 7,0 6,6 6,7 7,8 9,1 11,7 15 8 24 13 SW 1003,9 14 0 0,0
07.11.2019 00:00:00 7,1 6,8 6,8 7,8 9,1 11,7 15 8 29 16 WSW 1004,2 13 0 0,1
06.11.2019 23:00:00 7,2 6,7 6,9 7,9 9,2 11,7 17 9 30 16 WSW 1004,6 16 0 0,0
06.11.2019 22:00:00 7,5 6,9 7,1 8,0 9,2 11,7 19 10 31 17 WSW 1004,5 17 0 0,0
06.11.2019 21:00:00 7,6 6,9 7,2 8,1 9,2 11,8 17 9 31 17 WSW 1004,4 23 0 0,0
06.11.2019 20:00:00 7,8 7,3 7,3 8,3 9,3 11,8 20 11 29 16 WSW 1004,3 23 0 0,0
06.11.2019 19:00:00 7,7 7,5 7,5 8,4 9,3 11,8 18 10 29 16 WSW 1004,4 12 0 0,3
06.11.2019 18:00:00 7,8 7,0 7,4 8,5 9,3 11,8 10 5 21 11 SW 1004,4 12 0 0,0
06.11.2019 17:00:00 8,3 6,8 7,9 9,0 9,3 11,8 13 7 20 11 WSW 1004,2 39 0 0,0

tt = temperature
td = dewpoint
tt 5cm = temperature 5cm
tt -5cm = temperature -5cm
tt -20cm = temperature -20cm
tt -100cm = temperature -100cm
ff = wind speed
fx = gusts
dd = wind direction
ppp = reduced air pressure
vv = visibility
sd = sunshine duration
rr = precipitation

Next stations